Location: D�pe
(52.6057°N, 8.1808°E)
Time: 14:39:48
(UTC+00:00)

SJ 16-02 - Pass Details

Date: 29 October 2020
Orbit: 605 x 617 km, 75.0° (Epoch: 29 November)

Event Time Altitude Azimuth Distance (km) Brightness Sun altitude
Rises 20:07:43 0° 331° (NNW) 2,898 5.5 -36.9°
Reaches altitude 10° 20:10:03 10° 325° (NW) 1,990 4.6 -37.2°
Enters shadow 20:10:39 14° 322° (NW) 1,761 4.3 -37.3°
